EUTELSAT 70B

Last updated on Mon Oct 20 2025 00:02:47 GMT+0000 (Coordinated Universal Time)

1 39020U 12069A 25292.19975194 -.00000046 00000+0 00000+0 0 9996 2 39020 0.0674 352.8461 0004272 215.2231 322.2888 1.00271202 47091
UTC large
Height (km)
Speed (km/s)
/
Latitude / Longitude
Inclination (degrees)
Orbital Period (minutes)
Azimuth
Elevation
Range (km)
Doppler Factor

Next 0 passes for location: London (51.5072 / 0.1276)

Sorry there are no passes over London.